Location: ??????????
(44.2167°N, 135.5333°E)
Time: 15:03:11
(UTC+00:00)

ATLAS 5 CENTAUR R/B - Pass Details

Date: 15 June 2025
Orbit: 385 x 1113 km, 63.3° (Epoch: 16 July)

Event Time Altitude Azimuth Distance (km) Brightness Sun altitude
Exits shadow 16:31:15 11° 115° (ESE) 1,383 3.3 -19.2°
Maximum altitude 16:31:22 11° 113° (ESE) 1,383 3.4 -19.2°
Drops below altitude 10° 16:32:03 10° 100° (E) 1,423 3.6 -19.1°
Sets 16:35:35 0° 58° (ENE) 2,355 5.5 -18.9°
